Location: Sungai Juaw
(2.6833°N, 113.5333°E)
Time: 22:44:00
(UTC+00:00)

CZ-4B R/B - Pass Details

Date: 04 August 2024
Orbit: 807 x 881 km, 99.0° (Epoch: 19 September)

Event Time Altitude Azimuth Distance (km) Brightness Sun altitude
Exits shadow 12:57:40 43° 336° (NNW) 1,208 4.2 -33.6°
Drops below altitude 10° 13:01:20 10° 344° (NNW) 2,518 6.0 -34.5°
Sets 13:03:44 0° 345° (NNW) 3,460 6.8 -35.0°
